Погода в Новомирском

Россия / Ростовская область     46°49′36″N   39°24′49″E
темп.,
°C
ветер,
м/с
пор.,
м/с
влажн.,
%
обл.,
%
осадки,
мм/ч
давл.,
гПа
погр.,
м
18 мая, вт
вт1800:00+15зюз61194100 1.6 1009351
03:00+14юз51193100 1.9 1009476
06:00+14юз5109394 0.0 1010438
09:00+18юз567691 0.0 1010793
12:00+19юз5765100 0.1 10101435
15:00+21зюз78561 0.1 10101601
18:00+20зюз23695 0.1 1009474
21:00+16ююв12795 0.3 100911
19 мая, ср
ср1900:00+15ю2385100 0.1 100968
03:00+15юз1287100 0.1 100828
06:00+14ююз4896100 2.0 1008423
09:00+13зюз3797100 12.2 1010376
12:00+14ююз5989100 1.0 1011726
15:00+18юз8117291 3.5 10111608
18:00+16юз71280100 1.1 10121086
21:00+14ююз71386100 1.2 1013843
20 мая, чт
чт2000:00+13ююз8148653 0.1 1013728
03:00+13ююз714889 0.1 1013624
06:00+12ююз613904 0.0 1014433
09:00+17юз697018 0.0 1014701
12:00+21юз56575 0.0 10141346
15:00+22ююз3353100 0.0 10141624
18:00+21юв34650 0.0 1014357
21:00+16вюв46760 0.0 101479
21 мая, пт
пт2100:00+14в410753 0.0 1013177
03:00+13в412805 0.0 1012204
06:00+14в5128227 0.0 1011271
09:00+20вюв6964100 0.0 1011412
12:00+24вюв685929 0.0 1010667
15:00+26вюв79590 0.0 1010785
18:00+24вюв611714 0.0 1009678
21:00+19всв410865 0.0 1009177
22 мая, сб
сб2200:00+17в411870 0.0 1009228
03:00+16в511780 0.0 1008200
06:00+16в5118083 0.0 1008245
09:00+20вюв577035 0.0 1009407
12:00+25всв5662100 0.0 1008588
15:00+26вюв346384 0.0 1009924
18:00+26св487392 0.0 1007317
21:00+23всв367978 0.0 1008109